sat.trackr.live / text

‹ back to catalog

STARLINK-32145

NORAD 60154 · 2024-120V

PAYLOAD ACTIVE UNKNOWN

§ Identity

Operator
Country
US
Launch date
2024-06-27
Launch site
AFETR
Launch vehicle
Mass (kg)
RCS (m²)

Purposes: comms

External: N2YO · Heavens-Above · Gunter

§ Orbital elements

Epoch: 2026-05-25T04:55:14.547072Z

Period
94.11 min
Inclination
53.1619°
Eccentricity
0.0001612
Mean motion
15.30195359 rev/d
Perigee alt
474.1 km
Apogee alt
476.3 km
Semi-major
6,853.4 km
B*
-3.0427e-5
RAAN
324.3283°
Arg perigee
64.8836°
Mean anomaly
295.2332°
Rev number
10,809

§ Raw data

STARLINK-321451 60154U 24120V   26145.20502948 -.00001260  00000+0 -30427-4 0  99932 60154  53.1619 324.3283 0001612  64.8836 295.2332 15.30195359108098

JSON: /api/v1/satellites/60154 · /tle

For live sub-satellite position, see the globe view (requires WebGL).

§ Visibility from observer

Set your observer location to see the next 7 days of passes ≥ 10°. The values pass through the URL so the page stays shareable.

No JS? Fill the form by hand. The geolocation button needs JavaScript.